#timestamp,LO_Frequency,Hit,StdDev 
1520244015.6,286046998.2,N
1520244035.4,286046998.5,N
1520244055.2,286047000.3,N
1520244075.1,286047002.4,N
1520244076.0,286047002.4,N
1520244095.8,286047000.0,N
1520244115.7,286047000.5,N
1520244135.5,286047002.4,N
1520244155.3,286047002.7,N
1520244175.2,286046999.9,N
1520244195.0,286047000.2,N
1520244195.9,286047000.2,N
1520244215.8,286046998.1,N
1520244235.6,286047000.3,N
1520244255.4,286047001.0,N
1520244275.3,286047001.1,N
1520244295.1,286047000.8,N
1520244315.8,286047002.4,N
1520244335.7,286047001.6,N
1520244355.5,286046999.7,N
1520244375.4,286047000.9,N
1520244395.2,286047001.0,N
1520244415.0,286046998.6,N
1520244415.9,286046998.6,N
1520244435.8,286046998.7,N
1520244455.6,286046996.5,N
1520244475.5,286046998.9,N
1520244495.3,286046998.2,N
1520244515.1,286047000.5,N
1520244535.9,286047000.7,N
1520244555.7,286047001.0,N
1520244575.5,286047002.2,N
1520244595.4,286047000.6,N
1520244615.2,286047001.1,N
1520244635.0,286047000.4,N
1520244636.0,286047000.4,N
1520244655.8,286047000.9,N
1520244675.6,286047000.1,N
1520244695.5,286046999.7,N
1520244715.3,286047002.8,N
1520244735.1,286046999.8,N
1520244755.9,286047001.1,N
1520244775.7,286046998.5,N
1520244795.6,286046998.2,N
1520244815.4,286046998.1,N
1520244835.2,286046998.6,N
1520244855.1,286046998.1,N
1520244856.0,286046998.1,N
1520244875.8,286047000.8,N
1520244895.6,286047000.6,N
1520244915.5,286047000.7,N
1520244935.3,286046998.7,N
1520244955.2,286046998.6,N
1520244975.9,286047000.9,N
1520244995.7,286046998.1,N
1520245015.6,286047000.9,N
1520245035.4,286047000.5,N
1520245055.3,286046998.4,N
1520245075.1,286046996.9,N
1520245076.0,286046996.9,N
1520245095.8,286046996.9,N
1520245115.7,286046997.2,N
1520245135.5,286046997.1,N
1520245155.3,286046999.2,N
1520245175.2,286046996.7,N
1520245195.0,286046996.9,N
1520245195.9,286046996.9,N
1520245215.8,286046997.6,N
1520245235.7,286046996.3,N
1520245255.5,286046995.0,Y
1520245275.4,286046995.3,P
1520245295.2,286046994.9,P
1520245315.0,286046998.0,N
1520245315.9,286046998.0,N
1520245335.8,286046996.0,N
1520245355.6,286046995.0,Y
1520245375.5,286046998.2,P
1520245395.3,286046999.4,N
1520245415.1,286046997.3,N
1520245435.9,286046996.1,Y
1520245455.7,286046996.8,P
1520245475.5,286046999.1,N
1520245495.4,286046998.4,N
1520245515.2,286047001.1,N
1520245535.1,286047001.1,N
1520245536.0,286047001.1,N
1520245555.8,286047001.2,N
1520245575.6,286046996.9,N
1520245595.5,286046997.3,N
1520245615.3,286046997.3,N
1520245635.1,286046996.9,N
1520245655.9,286046998.2,N
1520245675.7,286046999.3,N
1520245695.6,286046999.2,N
1520245715.4,286046997.7,N
1520245735.2,286046997.8,N
1520245755.1,286046997.4,N
1520245756.0,286046997.4,N
1520245775.8,286046997.1,N
1520245795.6,286046996.9,N
1520245815.5,286046998.0,N
1520245835.3,286046994.9,Y
1520245855.2,286046996.8,P
1520245875.9,286046997.5,P
1520245895.7,286046999.1,N
1520245915.6,286046997.4,Y
1520245935.4,286046998.9,P
1520245955.3,286047000.7,N
1520245975.1,286047002.6,N
1520245976.0,286047002.6,N
1520245995.8,286047002.6,N
1520246015.7,286047000.2,N
1520246035.5,286047001.0,N
1520246055.3,286047001.0,N
1520246075.2,286047001.2,N
1520246095.0,286047000.4,N
1520246095.9,286047000.4,N
1520246115.8,286046998.2,N
1520246135.6,286046999.3,N
1520246155.4,286046999.1,N
1520246175.3,286046999.5,N
1520246195.1,286046997.0,N
1520246215.8,286046996.6,N
1520246235.7,286046999.5,N
1520246255.5,286046999.4,N
1520246275.4,286046996.8,N
1520246295.2,286046997.8,N
1520246315.0,286046997.7,N
1520246315.9,286046997.7,N
1520246335.8,286046996.7,N
1520246355.6,286046996.9,N
1520246375.5,286046997.5,N
1520246395.3,286046999.2,N
1520246415.1,286046996.7,N
1520246435.9,286046995.5,N
1520246455.7,286046995.9,N
1520246475.5,286046994.3,N
1520246495.4,286046996.0,N
1520246515.2,286046995.7,N
1520246535.1,286046996.3,N
1520246536.0,286046996.3,N
1520246555.8,286046993.4,Y
1520246575.6,286046997.7,P
1520246595.5,286046997.8,P
1520246615.3,286046997.4,P
1520246635.2,286046996.8,Y
1520246655.9,286046998.7,P
1520246675.7,286046999.0,N
1520246695.6,286046998.1,P
1520246715.8,286046998.4,Y
1520246735.7,286046998.4,P
1520246755.5,286046998.9,P
1520246775.4,286046999.5,N
1520246795.2,286046997.4,Y
1520246815.0,286046998.8,P
1520246815.9,286046998.8,P
1520246835.8,286047000.7,P
1520246855.6,286047000.3,N
1520246875.5,286046999.9,N
1520246895.3,286047000.6,N
1520246915.1,286046999.8,N
1520246935.9,286047001.6,N
1520246955.7,286047002.4,N
1520246975.5,286047000.7,N
1520246995.4,286047000.9,N
1520247015.2,286047002.8,N
1520247035.1,286047000.7,N
1520247036.0,286047000.7,N
1520247055.8,286047000.6,N
1520247075.6,286047000.8,N
1520247095.5,286047000.8,N
1520247115.3,286046998.3,N
1520247135.2,286046998.3,N
1520247155.9,286046998.5,N
1520247175.7,286047000.7,N
1520247195.5,286047001.2,N
1520247215.3,286046999.9,N
1520247235.2,286047001.9,N
1520247255.0,286046999.8,N
1520247255.9,286046999.8,N
1520247275.8,286047000.5,N
1520247295.6,286047000.4,N
1520247315.4,286046998.3,N
1520247335.3,286046999.3,N
1520247355.1,286046998.7,N
1520247375.9,286046999.3,N
1520247395.7,286046996.7,N
1520247415.5,286046999.0,N
1520247435.4,286046996.6,N
1520247455.2,286046998.8,N
1520247475.0,286047001.2,N
1520247475.9,286047001.2,N
1520247495.8,286047000.8,N
1520247515.6,286047000.6,N
1520247535.5,286047000.7,N
1520247555.3,286046998.5,N
1520247575.1,286046999.5,N
1520247595.9,286046996.6,N
